This is the latest recevied weather packets stored in our database for station/object WX9WTF. If no packets are shown the sender has not sent any weather packets the latest 1 day(s).
| Time | Temp. | Humidity | Pressure | Rain* | Wind** | Luminosity | Snow |
|---|---|---|---|---|---|---|---|
| 1778050438 | 7.78° C | 87% | 1016.3 hPa | 0 mm | 0.89 m/s, 320° | 0 W/m² | - |
| 1778050135 | 7.78° C | 86% | 1016.3 hPa | 0.51 mm | 1.34 m/s, 329° | 0 W/m² | - |
| 1778049830 | 7.78° C | 86% | 1016.3 hPa | 0.51 mm | 0 m/s | 0 W/m² | - |
| 1778049527 | 7.78° C | 85% | 1016.1 hPa | 0.51 mm | 1.34 m/s, 342° | 0 W/m² | - |
| 1778049225 | 7.78° C | 85% | 1016.3 hPa | 0.51 mm | 0 m/s | 0 W/m² | - |
| 1778048923 | 7.78° C | 85% | 1016.1 hPa | 0 mm | 0.45 m/s, 23° | 0 W/m² | - |
| 1778048621 | 7.78° C | 85% | 1016.6 hPa | 0 mm | 0.89 m/s, 336° | 0 W/m² | - |
| 1778048316 | 7.78° C | 85% | 1016.2 hPa | 0 mm | 0.89 m/s, 305° | 0 W/m² | - |
| 1778048013 | 8.33° C | 85% | 1016.1 hPa | 0 mm | 0.89 m/s, 20° | 0 W/m² | - |
| 1778047711 | 8.33° C | 85% | 1016.6 hPa | 0 mm | 1.34 m/s, 329° | 0 W/m² | - |
| 1778047409 | 8.33° C | 85% | 1016.7 hPa | 0 mm | 1.79 m/s, 313° | 0 W/m² | - |
| 1778047105 | 8.33° C | 84% | 1016.5 hPa | 0 mm | 1.34 m/s, 325° | 0 W/m² | - |
| 1778046802 | 8.33° C | 84% | 1016.4 hPa | 0 mm | 1.79 m/s, 320° | 0 W/m² | - |
| 1778046500 | 8.33° C | 84% | 1016.1 hPa | 0 mm | 1.34 m/s, 318° | 0 W/m² | - |
| 1778046196 | 8.33° C | 84% | 1015.8 hPa | 0 mm | 0 m/s | 0 W/m² | - |
| 1778045892 | 8.33° C | 83% | 1015.8 hPa | 0 mm | 0.45 m/s, 346° | 0 W/m² | - |
| 1778045592 | 8.33° C | 83% | 1016 hPa | 0 mm | 1.34 m/s, 49° | 0 W/m² | - |
| 1778045289 | 8.33° C | 83% | 1015.6 hPa | 0 mm | 0.89 m/s, 26° | 0 W/m² | - |
| 1778044988 | 8.89° C | 83% | 1016 hPa | 0 mm | 1.79 m/s, 343° | 0 W/m² | - |
| 1778044685 | 8.89° C | 82% | 1016.1 hPa | 0 mm | 2.68 m/s, 340° | 0 W/m² | - |
| 1778044381 | 8.89° C | 83% | 1015.8 hPa | 0 mm | 2.68 m/s, 330° | 0 W/m² | - |
| 1778044079 | 8.89° C | 88% | 1015.5 hPa | 0 mm | 2.68 m/s, 318° | 0 W/m² | - |
| 1778043776 | 8.89° C | 94% | 1015.4 hPa | 0 mm | 1.34 m/s, 352° | 0 W/m² | - |
| 1778043472 | 8.89° C | 95% | 1015.6 hPa | 0 mm | 2.68 m/s, 265° | 0 W/m² | - |
| 1778043170 | 8.89° C | 95% | 1015.6 hPa | 0.51 mm | 0.89 m/s, 285° | 0 W/m² | - |
* Rain latest hour (hover to see other rain measurements)
** Current wind speed in m/s (hover to see current wind gust speed)